Theta_e
281 281 281 280 281 280 280 280 281 281 280 279 277 279 278 278 279 276 277 280 283 285 286 285 286 286 287 288 287 287 288 288 289 289 290 290 290 290
281 280 280 280 279 279 280 278 278 279 278 278 276 276 276 277 278 276 277 277 279 284 283 283 284 284 285 285 285 285 285 286 287 288 288 288 288 289
280 280 279 279 278 277 278 278 276 277 276 276 276 276 275 274 274 275 275 274 274 281 280 281 281 282 282 282 282 282 283 284 285 285 285 286 286 287
279 279 278 280 277 276 276 276 275 276 277 275 275 274 273 274 273 273 273 274 273 278 279 279 279 279 280 280 280 280 281 282 283 283 283 284 284 285
278 277 276 277 276 275 275 275 276 277 277 276 274 275 274 272 272 272 271 271 273 275 276 276 277 277 278 278 278 279 280 281 281 281 281 281 282 283
278 277 277 276 276 275 275 275 276 276 276 274 273 272 272 272 271 268 268 269 269 272 272 273 274 274 275 275 275 277 279 280 279 279 279 279 280 280
276 277 277 278 280 278 276 275 275 274 274 273 271 271 269 268 266 267 266 266 268 268 268 269 270 269 269 270 272 276 278 278 278 278 278 278 278 279
275 276 276 276 278 279 279 279 276 273 272 272 270 268 267 267 267 265 265 262 261 268 265 265 269 267 268 268 273 276 276 276 276 276 277 277 277 277
275 275 275 275 275 274 275 274 275 276 274 271 268 267 266 266 266 264 264 263 263 265 265 263 267 264 267 267 271 274 275 275 275 275 275 276 276 276
276 275 275 274 274 272 271 270 270 270 269 269 268 267 268 268 266 265 263 262 261 265 265 260 264 263 265 266 270 272 273 273 273 274 274 274 275 275
276 275 275 273 276 275 271 269 267 268 271 272 272 272 271 271 269 263 255 254 255 262 264 261 262 261 263 263 266 270 271 271 271 272 273 273 273 274
274 275 276 274 276 276 271 267 262 264 264 262 264 267 266 266 267 264 262 253 255 254 263 260 260 260 258 262 263 264 264 267 270 270 271 271 272 268
273 273 275 277 276 275 272 267 264 265 266 261 262 262 262 262 262 263 263 261 256 257 262 262 259 260 258 258 261 263 263 263 263 264 268 269 270 270
272 272 273 278 276 274 270 271 271 265 260 257 256 257 258 259 261 262 262 262 262 261 262 262 259 259 257 256 257 261 262 262 263 262 263 266 268 269
273 274 276 278 277 273 272 271 263 259 256 253 254 257 259 260 261 260 260 260 259 260 262 261 259 259 258 255 255 257 259 260 261 262 262 262 262 263
276 275 276 272 272 269 266 265 261 257 256 254 254 257 259 257 255 257 253 254 250 252 258 259 257 256 253 255 256 255 257 256 260 261 261 262 262 263
269 265 263 261 259 257 254 255 255 254 254 253 253 253 254 254 254 253 252 247 248 250 251 253 254 255 255 254 252 255 256 257 260 260 260 259 261 262
263 262 258 259 260 258 256 253 252 253 253 252 250 251 251 251 251 250 250 246 245 246 246 249 249 249 249 251 261 256 257 258 259 259 259 258 258 261
260 259 265 261 260 258 256 254 253 255 251 253 252 251 249 248 248 247 248 248 245 246 247 248 246 244 243 250 253 263 257 257 257 258 259 259 258 260
257 259 261 259 256 257 255 254 254 249 251 251 250 248 247 247 246 246 246 244 243 244 243 246 246 245 244 246 250 254 262 258 258 258 258 260 261 267
257 258 258 257 256 256 256 254 254 253 251 247 247 248 248 245 245 246 246 248 245 241 245 249 251 255 253 250 246 251 257 264 263 260 259 259 259 260
261 262 258 258 257 257 254 254 252 249 250 249 250 249 249 247 249 247 245 244 243 245 246 250 251 251 247 248 251 252 253 257 261 264 266 265 260 258
263 263 260 258 257 255 254 253 253 254 252 251 250 249 247 245 248 249 246 243 242 242 243 246 247 249 247 249 251 251 253 254 256 257 259 266 267 268
Wind_Speed
4 4 3 3 3 3 3 2 3 3 2 2 2 3 3 4 8 5 6 13 12 11 13 15 15 14 14 15 15 15 16 18 16 16 17 19 20 22
3 5 4 3 4 4 3 3 2 2 3 0 1 3 3 4 7 5 7 10 12 10 14 15 14 14 15 15 15 14 16 15 15 16 19 21 21 21
4 4 4 4 3 4 3 3 3 2 3 2 2 2 3 4 5 5 4 4 5 9 13 12 11 14 15 15 14 14 14 14 15 19 21 22 21 22
4 4 4 3 5 5 4 5 4 4 3 4 2 2 3 4 4 5 6 7 5 8 14 13 12 14 15 16 14 14 13 14 19 21 20 21 22 23
4 5 5 4 4 3 3 3 3 4 4 3 2 2 3 4 3 3 5 5 4 7 15 13 11 15 16 16 14 15 15 14 19 22 22 23 22 23
4 4 3 4 3 3 3 3 3 3 4 4 3 2 2 3 3 4 5 3 3 5 9 9 10 14 16 17 13 16 17 18 22 21 22 22 24 25
4 5 4 4 8 5 3 3 3 3 3 3 3 1 2 3 4 4 3 6 2 4 5 5 4 5 7 13 12 17 18 20 21 22 22 24 25 25
4 4 3 4 8 11 12 11 6 2 3 2 1 2 3 2 2 3 3 3 3 3 6 5 3 6 6 7 16 16 20 22 22 23 24 26 25 25
5 5 4 3 4 5 9 11 10 12 9 3 4 2 2 2 2 1 1 2 3 4 6 4 3 8 7 8 15 15 21 21 24 24 26 26 26 26
5 5 4 5 4 5 5 5 5 6 6 5 5 4 2 3 2 2 2 4 4 1 6 3 3 7 10 7 12 14 21 20 24 27 28 26 27 28
5 5 5 4 7 8 5 5 4 3 6 7 7 6 5 5 6 2 3 4 3 1 4 3 3 7 6 6 5 16 20 20 24 28 27 27 29 29
4 5 8 6 9 8 5 5 4 2 2 3 3 4 5 5 7 4 1 2 1 3 1 5 4 5 6 3 5 8 8 16 26 26 25 27 29 13
5 4 3 9 8 7 6 4 5 5 4 3 2 2 2 2 2 2 1 0 2 3 3 4 3 3 3 7 6 9 6 11 11 13 21 26 29 27
6 4 5 11 9 7 5 7 8 6 2 2 1 0 0 1 1 1 1 2 4 6 5 4 3 4 4 7 7 7 10 9 9 10 11 20 29 29
4 9 14 14 12 8 7 6 6 2 2 2 2 2 1 1 2 2 2 3 6 5 2 2 3 5 5 7 9 10 16 6 10 10 12 13 15 14
12 7 10 5 11 10 5 4 2 2 3 3 2 1 0 1 1 1 1 2 2 3 4 4 3 2 4 8 8 12 9 7 12 12 13 14 16 13
7 3 2 2 3 2 2 2 2 2 2 2 2 1 0 0 1 0 1 2 0 3 4 3 4 6 7 11 7 9 11 11 12 14 14 15 17 15
3 4 3 4 6 6 4 3 2 4 3 2 2 2 2 2 1 1 1 1 2 2 3 3 3 5 4 6 15 9 9 12 13 14 15 13 17 18
3 4 8 8 7 6 5 5 4 4 4 4 3 3 2 2 2 2 2 2 2 2 3 2 2 1 3 6 5 13 11 13 13 14 13 13 17 19
4 5 7 7 5 6 5 5 4 2 3 4 4 3 3 3 2 3 2 2 2 3 3 2 2 3 3 4 7 11 23 14 12 14 16 15 20 37
4 5 5 6 5 6 6 5 5 5 5 4 3 4 4 4 3 3 3 5 3 1 4 4 3 7 7 4 4 9 11 21 20 15 17 16 18 20
6 8 7 6 6 7 5 5 4 4 5 4 4 4 4 4 5 4 4 3 3 3 4 6 7 5 2 3 11 14 12 14 21 27 29 26 15 19
8 8 7 7 6 6 5 5 6 6 6 5 5 5 4 4 5 4 3 3 3 3 2 4 3 2 3 5 11 12 19 19 15 19 19 31 32 36
Wind_Direction
49 46 51 24 31 42 73 97 134 170 124 120 118 42 63 34 30 3 2 20 18 14 33 11 12 10 9 8 3 358 357 350 346 347 344 343 342 335
47 44 32 16 19 18 28 37 39 145 132 159 103 117 53 66 28 12 11 23 10 17 24 12 11 16 8 3 359 354 352 343 348 352 350 341 333 331
62 67 54 44 29 23 27 30 32 13 99 84 93 104 60 42 24 7 10 32 345 16 17 16 19 14 5 359 354 359 347 348 355 352 343 335 331 331
63 60 32 39 41 27 28 28 35 16 90 120 67 60 56 22 28 12 10 13 342 11 10 12 13 11 3 359 358 353 349 354 357 344 337 336 333 327
65 55 31 44 47 45 46 44 32 35 33 101 110 70 78 34 345 348 360 356 342 10 6 2 360 2 360 359 359 353 343 351 348 342 342 335 328 327
73 71 60 58 75 77 60 35 64 76 77 89 82 91 42 53 23 346 341 346 333 2 349 345 347 352 354 359 353 348 340 347 345 340 338 333 332 325
93 88 64 70 73 72 83 31 51 72 86 89 92 96 44 27 15 343 304 319 302 22 331 327 326 334 339 351 341 339 345 346 341 341 336 335 329 326
128 111 95 49 83 82 75 73 69 86 101 97 87 82 77 34 357 348 334 338 330 31 346 316 339 334 329 335 328 333 348 343 344 339 336 331 327 324
155 163 164 141 110 99 89 72 51 62 68 76 108 76 94 41 356 305 327 308 282 340 346 300 343 327 322 321 320 333 346 341 341 336 332 328 325 322
170 179 168 169 176 146 127 102 81 71 66 74 88 118 137 116 55 34 339 314 303 248 8 295 337 309 311 311 313 330 339 335 335 333 329 326 323 320
178 164 166 170 191 173 144 135 114 79 55 86 102 90 64 52 56 52 7 37 329 327 40 320 326 307 304 303 303 325 329 326 326 329 324 321 320 320
153 158 179 180 188 180 160 152 161 185 128 69 44 68 60 34 37 45 47 113 306 327 20 341 325 354 312 294 314 305 309 308 322 319 318 315 316 312
170 173 198 191 187 180 165 153 189 152 157 118 117 90 72 55 37 13 2 80 173 251 303 1 309 316 255 299 299 297 292 314 306 306 305 309 309 314
182 168 193 189 176 163 148 176 156 133 108 102 110 142 105 349 323 310 301 303 279 266 296 296 265 301 284 291 287 309 310 304 297 306 301 306 305 307
162 186 199 202 190 164 171 156 81 121 130 115 193 214 193 246 305 339 317 318 285 268 251 280 290 292 283 266 290 302 318 314 298 305 308 302 301 303
193 202 204 187 149 143 126 120 131 157 173 183 201 206 264 35 354 4 315 333 8 312 294 259 272 266 274 268 280 287 292 300 304 303 303 302 296 291
135 91 82 98 114 125 85 136 146 153 181 198 175 189 192 80 281 25 282 355 88 300 303 276 255 260 257 260 276 265 288 289 287 300 307 298 294 296
105 155 177 178 183 182 183 190 201 200 214 194 199 189 197 201 247 309 248 199 228 260 274 279 315 335 332 291 249 273 281 291 299 302 297 294 295 296
152 184 193 193 198 190 186 183 201 205 173 201 201 206 186 203 188 235 255 255 275 252 245 253 302 95 317 305 275 284 299 298 301 302 298 299 292 297
155 183 203 188 183 190 187 193 202 179 195 200 203 197 195 184 202 234 230 230 256 285 295 257 232 214 184 256 308 291 293 294 301 302 302 301 292 296
157 180 180 183 195 194 198 192 187 194 191 181 203 199 197 176 225 227 231 235 247 250 291 290 260 278 279 300 306 286 293 298 303 302 304 302 303 305
161 188 189 189 194 197 191 186 188 186 196 197 205 200 200 189 222 221 213 218 219 226 250 284 295 291 277 227 292 294 296 302 309 306 302 303 301 303
182 182 181 194 194 189 180 182 194 203 201 196 193 206 181 209 214 223 212 213 227 259 249 292 283 265 232 262 285 291 300 304 313 319 314 315 315 308